Location: Unspecified
(56.5167°N, 0.0000°E)
Time: 08:52:34
(UTC+01:00)

Cosmos 2058 - Visible Passes

Search period start: 19 January 2019 00:00
Search period end: 29 January 2019 00:00
Orbit: 562 x 585 km, 82.5° (Epoch: 18 January)

Date Brightness Start Highest point End Pass type
(mag) Time Alt. Az. Time Alt. Az. Time Alt. Az.
19 Jan 4.8 06:33:24 10° N 06:37:00 28° ENE 06:40:36 10° SE visible
19 Jan 3.3 08:10:12 10° NNW 08:14:05 41° W 08:17:56 10° SSW visible
20 Jan 4.5 06:36:23 10° N 06:40:10 34° ENE 06:43:56 10° SE visible
20 Jan 3.6 08:13:22 10° NNW 08:17:06 33° W 08:20:47 10° SSW visible
21 Jan 4.1 06:39:23 10° N 06:43:18 42° ENE 06:47:13 10° SE visible
21 Jan 3.9 08:16:36 10° NNW 08:20:05 27° W 08:23:34 10° SSW visible
22 Jan 6.2 05:08:09 10° NE 05:08:28 10° NE 05:08:47 10° NE visible
22 Jan 3.7 06:42:24 10° N 06:46:26 52° ENE 06:50:26 10° SSE visible
22 Jan 4.1 08:19:52 10° NW 08:23:04 22° W 08:26:16 10° SW visible
23 Jan 6.0 05:10:05 10° NNE 05:11:44 12° NE 05:13:22 10° ENE visible
23 Jan 3.2 06:45:26 10° N 06:49:32 65° ENE 06:53:37 10° SSE visible
23 Jan 4.3 08:23:11 10° NW 08:26:02 18° W 08:28:52 10° SW visible
24 Jan 5.9 05:12:42 10° NNE 05:14:58 14° NE 05:17:15 10° E visible
24 Jan 2.9 06:48:30 10° N 06:52:38 81° ENE 06:56:44 10° SSE visible
24 Jan 4.6 08:26:38 10° NW 08:28:59 15° W 08:31:20 10° WSW visible
24 Jan 5.1 19:21:06 10° SE 19:21:27 12° SE 19:21:27 12° SE visible
24 Jan 5.6 20:57:22 10° SW 20:57:45 12° SW 20:57:45 12° SW visible
25 Jan 5.6 05:15:36 11° NNE 05:18:12 17° ENE 05:20:55 10° E visible
25 Jan 2.7 06:51:50 12° NNW 06:55:43 81° W 06:59:48 10° S visible
25 Jan 4.1 19:23:52 10° SSE 19:26:02 24° SE 19:26:02 24° SE visible
25 Jan 5.1 21:00:39 10° SW 21:02:20 21° WSW 21:02:20 21° WSW visible
26 Jan 5.4 05:19:07 13° NNE 05:21:24 20° ENE 05:24:29 10° ESE visible
26 Jan 2.8 06:55:21 14° NNW 06:58:47 65° W 07:02:50 10° S visible
26 Jan 3.2 19:26:43 10° SSE 19:30:35 40° E 19:30:37 40° E visible
26 Jan 4.8 21:03:59 10° SW 21:06:55 28° W 21:06:55 28° W visible
27 Jan 5.1 05:22:43 18° NNE 05:24:36 24° ENE 05:27:57 10° ESE visible
27 Jan 3.0 06:58:58 18° NNW 07:01:49 51° W 07:05:48 10° S visible
27 Jan 3.0 19:29:37 10° S 19:33:36 50° E 19:35:07 32° NE visible
27 Jan 5.1 21:07:23 10° WSW 21:10:48 25° WNW 21:11:25 24° NW visible
28 Jan 4.8 05:26:29 24° NNE 05:27:46 29° ENE 05:31:22 10° SE visible
28 Jan 3.2 07:02:44 23° NW 07:04:50 41° W 07:08:42 10° SSW visible
28 Jan 2.8 19:32:34 10° S 19:36:39 63° E 19:39:32 19° NNE visible
28 Jan 5.4 21:10:51 10° WSW 21:13:59 21° WNW 21:15:49 16° NNW visible
